Вернуться в каталог

ELECTRON KICK STAGE R/B

АктивенVLEO
NORAD 100244·ROCKET BODY·🇺🇸 United States

Запущен Aug 6, 2026 с Rocket Lab Launch Complex 1

Loading…

Ближайшие Пролёты (ближайшие 24 часа)

TLE

СвежийSource: Space-Track

Эпоха: Sep 14, 2026, 02:24 UTC

1 A0244U 26180B   26257.10068407  .00002524  00000-0  22877-3 0  9997
2 A0244  42.0017 177.0014 0007156 163.4320 196.6739 14.97390534  5814

Отслеживайте ELECTRON KICK STAGE R/B в реальном времени с AllMySat

Download on the App Store